Wind_Speed
36 36 34 34 36 37 37 36 34 34 36 36 35 32 31 33 31 30 31 32 32 32 31 31 31 31 31 31 31 31 31 31 31 31 31 31 31 31 32 32 33 34 35 35
37 34 33 36 37 37 37 36 35 36 38 38 37 33 31 32 33 32 32 33 33 33 33 32 32 31 32 31 31 31 32 32 32 32 33 33 33 32 33 34 35 36 37 37
36 33 35 36 36 36 35 35 36 37 38 39 38 34 31 32 34 34 33 34 34 34 33 32 32 32 32 32 32 32 32 32 32 33 34 34 34 34 35 36 37 38 39 40
38 35 36 36 35 35 35 35 37 38 39 39 39 37 29 31 33 34 34 34 33 33 33 33 33 33 32 32 32 32 32 33 33 34 34 35 35 36 37 38 39 40 41 41
37 35 36 36 34 35 35 36 37 37 38 38 36 39 32 31 33 35 35 34 33 33 33 33 33 33 32 32 32 33 33 33 34 34 35 36 37 37 38 39 40 41 42 43
38 36 36 35 35 36 36 36 37 38 39 39 35 38 36 31 32 33 34 34 33 33 33 33 33 33 33 33 33 33 33 34 35 35 36 37 38 39 40 41 42 43 44 45
36 35 34 34 34 35 36 36 38 39 39 39 37 37 36 33 32 32 33 33 33 33 33 33 32 32 33 33 33 33 34 35 35 36 37 38 39 40 41 42 43 45 46 47
36 35 34 34 33 34 36 37 38 39 39 38 37 37 34 33 32 33 33 33 33 32 32 32 32 32 32 33 33 33 34 35 36 36 37 39 40 41 42 44 45 46 48 49
35 35 34 34 34 36 37 37 37 39 40 40 38 35 32 30 31 32 32 31 31 31 31 31 31 31 32 32 33 34 34 35 36 38 39 40 41 42 44 45 47 48 49 50
36 37 36 36 37 37 37 36 36 38 40 39 37 34 31 29 29 30 30 31 31 31 31 31 31 31 31 32 33 34 34 36 37 39 40 41 42 44 45 47 48 49 50 51
36 37 36 36 36 36 37 37 37 38 40 39 38 33 30 28 28 28 29 30 30 31 31 31 31 31 32 32 33 34 35 36 38 39 41 42 43 45 47 48 49 50 51 52
35 37 37 35 36 36 36 36 36 38 38 39 39 34 29 29 29 29 30 30 31 30 31 31 31 32 32 33 34 35 36 37 39 40 42 44 45 47 48 49 50 51 51 52
35 37 36 35 34 33 34 34 35 36 38 38 37 33 28 29 30 30 31 31 31 31 31 31 32 32 33 34 35 36 37 39 40 42 43 45 46 48 49 49 50 50 51 52
35 35 33 31 30 31 32 32 33 35 36 35 33 30 27 29 31 32 32 31 31 31 32 33 33 34 34 35 37 38 39 40 42 43 44 46 47 48 48 49 50 51 52 53
34 33 31 29 30 30 31 31 32 33 33 33 30 29 27 30 33 34 33 32 32 33 33 34 34 35 35 37 38 39 40 41 42 44 45 46 47 48 49 50 51 51 52 54
33 32 30 30 30 30 32 31 31 31 31 31 31 29 27 30 32 33 33 34 34 34 35 35 35 36 37 37 39 40 41 42 44 45 46 47 48 48 49 50 51 52 53 54
34 32 31 30 30 32 33 28 29 29 29 30 31 28 29 31 33 34 35 35 35 35 35 35 36 36 37 38 40 41 43 44 45 46 46 47 48 49 50 51 52 52 53 54
35 33 33 32 32 34 28 26 27 28 28 29 30 29 30 32 34 34 35 35 35 35 35 35 36 37 39 40 41 43 44 45 45 46 46 47 48 49 50 51 52 53 54 55
36 35 34 33 33 32 28 25 26 29 29 28 29 30 32 34 34 34 34 35 35 36 36 37 38 39 40 41 42 43 44 45 45 46 47 48 49 49 50 51 53 53 55 56
37 36 35 34 33 32 26 25 27 29 29 26 29 30 31 32 33 33 33 34 35 36 37 38 39 40 41 42 43 44 44 45 45 46 47 48 49 50 51 52 53 54 56 58
37 36 35 33 32 30 26 26 27 29 27 27 29 30 31 31 32 32 33 35 35 36 37 39 40 41 42 43 43 44 44 45 45 46 47 48 49 50 51 53 54 56 58 61
35 35 34 33 34 29 27 28 28 28 28 29 29 30 30 31 32 33 34 35 36 37 38 39 40 41 42 43 43 44 44 44 45 45 47 48 49 51 52 54 56 59 62 64
34 34 33 34 32 30 29 29 29 29 29 30 30 30 31 31 32 33 34 35 36 38 39 40 41 41 42 42 43 43 43 44 45 46 47 48 50 52 54 57 59 62 65 68
35 35 35 34 32 31 31 31 31 31 31 31 30 30 31 32 32 33 34 35 37 38 39 39 40 41 41 42 42 42 43 44 45 46 48 50 52 54 57 59 62 66 69 72
35 35 35 34 32 32 32 32 32 32 32 32 32 32 32 33 33 34 35 36 37 38 38 39 39 40 41 41 42 42 43 45 46 48 50 52 54 57 60 63 66 69 72 75
36 35 34 33 32 33 32 32 33 32 33 33 33 33 33 34 34 35 36 36 37 37 38 38 39 40 40 41 42 43 44 46 48 50 52 55 57 60 63 66 69 71 74 77
Wind_Direction
243 244 246 247 247 249 250 251 253 255 257 259 260 262 264 268 270 272 275 277 279 280 281 282 281 281 281 280 279 279 278 277 278 278 279 281 282 284 285 287 288 290 291 293
243 245 245 246 248 250 252 253 254 255 258 260 261 262 263 266 270 272 275 278 279 280 282 281 281 280 280 280 279 278 277 277 277 278 279 280 282 283 285 287 289 290 292 293
243 242 243 246 248 251 253 255 255 255 257 261 262 260 262 265 268 271 274 276 279 280 280 280 281 280 280 280 278 277 276 276 276 278 279 280 282 284 286 288 289 290 292 294
241 241 244 247 250 252 254 255 256 257 258 261 264 264 259 263 267 270 273 275 278 278 279 279 280 280 280 279 278 276 275 275 276 277 278 281 282 284 286 288 290 291 293 295
241 242 244 247 249 252 253 254 256 258 259 261 264 267 263 262 265 269 272 274 276 277 278 279 279 279 279 277 276 275 274 275 276 277 279 281 283 285 287 289 291 293 294 295
240 242 244 247 248 251 254 255 257 258 260 262 263 267 269 266 266 269 271 273 274 275 277 277 278 278 277 276 274 273 274 275 276 277 279 281 283 286 288 290 292 293 294 295
243 245 246 247 249 252 254 256 258 259 260 263 264 265 269 271 270 270 271 273 274 275 276 276 276 276 275 274 273 273 274 275 276 278 280 282 285 287 289 291 293 294 295 296
242 244 245 247 248 251 252 254 257 261 262 264 265 266 269 272 272 271 272 272 273 274 275 275 275 274 273 273 272 273 274 275 277 279 281 284 286 288 290 292 294 295 296 297
243 245 244 245 246 248 250 254 258 261 264 265 266 269 270 272 272 272 272 271 272 272 273 273 273 272 272 272 272 273 275 276 278 281 283 286 288 290 292 293 295 296 297 298
241 243 242 243 245 247 250 253 256 260 264 268 269 270 273 272 272 271 271 271 271 271 272 272 272 271 272 273 274 275 277 278 280 283 285 287 290 291 293 295 296 297 298 299
239 243 244 244 246 249 251 253 256 259 263 268 271 272 274 275 272 270 270 270 271 271 270 271 271 272 273 275 276 277 279 281 283 285 287 289 291 293 294 296 297 298 299 299
237 241 243 244 245 248 251 254 257 260 264 266 269 271 272 272 270 270 270 270 270 270 271 272 273 274 275 277 278 279 281 283 285 287 289 290 292 294 296 297 298 298 299 300
235 239 242 243 246 250 254 256 259 260 262 264 267 272 271 270 269 269 270 270 270 270 271 272 274 276 278 279 280 281 283 285 286 289 291 293 294 295 296 298 299 299 300 301
235 239 242 247 251 252 253 254 255 258 261 264 267 269 267 269 269 268 269 269 269 270 270 272 274 277 278 280 281 282 284 286 289 291 293 294 295 296 297 299 299 300 301 301
236 240 244 247 249 250 252 253 254 257 262 264 266 266 268 266 267 268 269 270 271 271 273 275 276 277 279 281 283 285 287 290 292 294 295 296 296 297 298 299 300 301 302 302
236 241 244 246 249 251 252 252 254 258 261 264 266 267 266 265 267 269 271 272 273 275 276 278 278 280 282 284 286 288 290 292 293 295 296 296 297 298 299 300 301 301 302 303
236 240 243 245 248 251 252 255 257 260 262 264 266 268 266 266 268 270 271 273 276 277 278 280 281 282 284 287 288 290 292 293 294 295 296 297 298 299 300 301 301 302 303 303
235 238 241 244 247 251 256 254 256 259 261 264 267 268 269 269 269 271 273 274 276 278 280 281 283 285 287 289 290 292 293 295 296 296 297 298 299 300 301 302 302 303 303 304
234 239 242 245 249 253 254 256 258 259 260 265 268 269 270 270 271 272 274 276 278 280 282 284 286 288 289 291 292 294 295 296 297 297 298 299 300 300 301 302 303 304 305 305
236 239 242 246 250 254 256 257 258 261 263 266 268 269 270 272 274 275 276 278 280 282 284 286 288 290 291 293 294 295 296 297 297 298 299 299 300 301 302 303 304 305 306 306
237 240 244 248 252 255 258 258 259 262 267 266 267 270 273 275 276 277 277 279 281 283 286 288 290 291 293 294 295 296 297 297 298 298 299 301 302 303 304 304 305 306 307 307
237 241 244 247 251 255 259 260 261 265 266 269 270 271 273 275 276 277 279 281 283 285 288 290 292 293 294 295 296 297 297 298 299 300 301 302 303 304 305 306 307 307 308 308
236 241 245 248 252 255 257 261 263 266 269 271 273 274 274 276 277 279 281 283 285 288 290 291 293 294 295 295 296 297 298 299 301 302 303 304 305 306 306 307 308 308 308 309
237 239 242 246 250 254 257 261 265 267 270 272 274 275 277 279 280 282 284 286 288 290 291 293 294 294 295 296 297 298 300 301 302 303 304 305 306 307 307 308 309 309 309 309
236 237 241 246 250 254 258 261 264 267 270 273 275 277 279 281 283 285 287 289 290 292 293 294 295 296 297 298 299 300 302 303 304 305 306 306 307 308 308 309 310 310 310 311
235 238 242 247 250 254 256 260 265 269 272 275 278 279 281 283 285 287 288 290 291 292 294 295 296 297 298 299 300 302 303 304 305 306 307 307 308 308 309 310 310 311 311 311
Height
5793 5797 5801 5803 5803 5806 5808 5810 5813 5814 5813 5815 5817 5820 5821 5820 5821 5822 5821 5821 5820 5820 5819 5818 5817 5816 5815 5814 5813 5811 5810 5808 5807 5806 5805 5803 5802 5800 5798 5796 5794 5792 5790 5787
5787 5791 5794 5793 5796 5798 5801 5803 5806 5807 5806 5807 5810 5813 5815 5814 5814 5815 5815 5814 5813 5813 5812 5811 5811 5809 5808 5807 5806 5804 5803 5802 5801 5799 5798 5797 5795 5793 5792 5790 5787 5785 5782 5780
5779 5785 5785 5786 5789 5792 5794 5796 5798 5799 5799 5800 5802 5807 5809 5808 5807 5808 5808 5807 5807 5806 5805 5804 5803 5803 5802 5800 5799 5798 5796 5795 5794 5793 5791 5790 5788 5786 5785 5783 5780 5777 5775 5772
5771 5776 5778 5780 5783 5785 5787 5789 5790 5791 5792 5793 5795 5797 5804 5802 5801 5800 5800 5800 5799 5799 5798 5797 5796 5795 5795 5793 5792 5791 5789 5788 5787 5786 5784 5783 5781 5779 5777 5775 5772 5770 5767 5764
5765 5769 5771 5774 5777 5778 5780 5781 5782 5783 5784 5786 5788 5788 5796 5795 5794 5793 5793 5793 5792 5792 5791 5790 5789 5788 5787 5786 5785 5784 5782 5781 5780 5778 5777 5775 5774 5772 5770 5767 5764 5761 5758 5755
5757 5761 5764 5767 5770 5771 5772 5774 5775 5776 5777 5780 5783 5781 5785 5787 5787 5786 5785 5785 5785 5784 5784 5783 5782 5781 5780 5779 5778 5777 5775 5774 5772 5771 5769 5768 5766 5764 5761 5759 5756 5753 5749 5746
5751 5754 5758 5760 5763 5764 5766 5768 5768 5769 5770 5772 5774 5775 5777 5778 5779 5778 5778 5777 5777 5776 5776 5775 5775 5774 5773 5772 5771 5769 5768 5767 5765 5764 5762 5760 5758 5756 5753 5750 5747 5744 5740 5736
5743 5748 5751 5754 5756 5758 5759 5760 5762 5762 5763 5764 5766 5767 5771 5771 5770 5770 5769 5769 5769 5769 5768 5768 5767 5767 5766 5765 5763 5762 5761 5759 5758 5756 5754 5752 5750 5747 5744 5741 5738 5734 5730 5726
5737 5741 5744 5746 5748 5750 5751 5753 5755 5754 5754 5755 5758 5761 5764 5763 5762 5762 5762 5761 5761 5761 5761 5760 5760 5759 5758 5757 5756 5755 5753 5752 5750 5748 5746 5744 5741 5739 5735 5732 5728 5724 5720 5715
5729 5732 5736 5738 5740 5742 5745 5746 5747 5747 5746 5747 5750 5753 5756 5755 5755 5755 5754 5754 5754 5754 5753 5753 5752 5752 5751 5750 5749 5747 5746 5744 5742 5740 5738 5735 5733 5730 5726 5722 5718 5714 5709 5705
5721 5724 5728 5731 5733 5736 5738 5739 5740 5740 5741 5741 5742 5748 5748 5748 5747 5747 5747 5746 5746 5746 5746 5745 5745 5744 5743 5742 5741 5740 5738 5736 5734 5732 5729 5726 5723 5720 5716 5712 5707 5703 5698 5693
5713 5716 5719 5723 5726 5727 5729 5731 5733 5734 5735 5734 5734 5741 5741 5740 5740 5739 5739 5739 5739 5739 5739 5738 5737 5737 5736 5734 5733 5732 5730 5728 5725 5723 5720 5717 5713 5709 5705 5701 5696 5691 5687 5681
5705 5708 5711 5715 5720 5721 5722 5724 5726 5726 5726 5726 5727 5734 5733 5733 5732 5731 5732 5732 5732 5732 5731 5731 5730 5729 5728 5727 5725 5723 5721 5719 5716 5713 5710 5706 5703 5698 5694 5689 5685 5680 5675 5669
5698 5701 5706 5710 5712 5714 5715 5717 5717 5718 5718 5719 5722 5725 5726 5724 5724 5723 5724 5724 5724 5724 5724 5723 5722 5721 5720 5718 5716 5714 5712 5709 5706 5703 5700 5696 5692 5687 5683 5678 5673 5668 5663 5657
5692 5695 5699 5702 5704 5706 5707 5709 5709 5710 5712 5713 5715 5716 5718 5717 5715 5715 5716 5716 5716 5716 5716 5715 5714 5713 5711 5709 5707 5705 5702 5700 5696 5693 5689 5685 5680 5676 5671 5666 5661 5656 5650 5644
5685 5689 5692 5695 5697 5698 5699 5701 5703 5704 5705 5706 5707 5709 5711 5708 5708 5708 5708 5708 5708 5708 5707 5706 5705 5704 5702 5700 5698 5695 5693 5689 5686 5682 5678 5673 5669 5664 5659 5654 5649 5643 5638 5632
5678 5682 5685 5688 5689 5690 5692 5696 5697 5698 5699 5699 5700 5703 5702 5701 5701 5700 5700 5700 5700 5699 5699 5698 5696 5695 5693 5691 5688 5685 5682 5679 5675 5671 5666 5662 5657 5652 5647 5642 5637 5631 5625 5619
5671 5674 5677 5680 5682 5682 5690 5690 5690 5691 5692 5692 5693 5694 5694 5693 5693 5693 5692 5692 5691 5691 5690 5689 5687 5685 5683 5681 5678 5675 5672 5668 5664 5660 5655 5650 5646 5641 5635 5630 5624 5618 5612 5606
5664 5667 5670 5672 5674 5676 5681 5684 5684 5683 5685 5686 5686 5686 5685 5684 5684 5685 5684 5684 5683 5682 5681 5680 5678 5676 5673 5671 5668 5664 5661 5657 5652 5648 5643 5639 5634 5628 5623 5617 5611 5605 5599 5592
5656 5660 5663 5665 5667 5670 5676 5677 5676 5677 5677 5680 5678 5677 5677 5677 5677 5678 5676 5676 5674 5673 5672 5670 5668 5666 5663 5660 5657 5653 5649 5645 5641 5637 5632 5627 5622 5616 5611 5605 5598 5592 5585 5578
5649 5653 5656 5659 5660 5663 5668 5669 5669 5670 5672 5671 5670 5670 5670 5670 5670 5669 5668 5667 5666 5664 5662 5660 5658 5655 5652 5649 5646 5642 5638 5634 5630 5625 5620 5615 5609 5604 5598 5592 5585 5578 5571 5564
5643 5646 5649 5651 5653 5659 5661 5660 5662 5663 5662 5663 5662 5662 5662 5662 5661 5660 5659 5658 5657 5655 5653 5651 5648 5645 5642 5638 5635 5631 5627 5623 5618 5613 5608 5603 5597 5591 5585 5578 5571 5564 5556 5548
5636 5640 5643 5645 5649 5651 5652 5653 5653 5654 5655 5655 5654 5655 5654 5654 5653 5652 5651 5649 5648 5646 5643 5640 5638 5634 5631 5628 5624 5620 5616 5611 5607 5601 5596 5590 5584 5578 5571 5564 5557 5549 5540 5531
5628 5631 5634 5637 5640 5643 5644 5644 5645 5646 5646 5646 5647 5647 5646 5646 5645 5644 5642 5640 5638 5636 5633 5630 5627 5624 5620 5617 5613 5609 5605 5600 5595 5590 5584 5578 5572 5565 5558 5550 5542 5533 5524 5514
5620 5623 5626 5629 5633 5634 5635 5636 5637 5638 5638 5638 5638 5638 5638 5637 5636 5635 5633 5631 5628 5626 5623 5620 5617 5614 5610 5606 5602 5598 5593 5589 5583 5578 5572 5565 5558 5551 5544 5536 5526 5517 5507 5494
5613 5616 5620 5623 5626 5626 5628 5628 5629 5629 5630 5630 5630 5630 5629 5628 5627 5625 5623 5621 5618 5616 5613 5610 5607 5603 5599 5595 5591 5587 5582 5577 5571 5566 5559 5552 5545 5537 5529 5520 5512 5501 5490 5479